Denver, CO

12:17 AM MDT on March 26, 2017 (GMT -0600)
Front Range

Weather History for KFTG - March, 2013

Change the Weather History Date:

Wednesday, March 13, 2013

  Actual Average (KDEN) Record (KDEN)
Temperature  
Mean Temperature 45 °F -  
Max Temperature 60 °F 55 °F 74 °F (1989)
Min Temperature 30 °F 25 °F -10 °F (1880)
Degree Days  
Heating Degree Days 20    
Moisture  
Dew Point 29 °F    
Average Humidity 63    
Maximum Humidity 93    
Minimum Humidity 31    
Precipitation  
Precipitation 0.00 in - - ()
Sea Level Pressure  
Sea Level Pressure 30.22 in    
Wind  
Wind Speed 7 mph (SW)    
Max Wind Speed 12 mph    
Max Gust Speed -    
Visibility 9 miles    
Events      
Averages and records for this station are not official NWS values.
T = Trace of Precipitation, MM = Missing Value Source: NWS Daily Summary

Daily Weather History Graph

Daily Weather History Graph

Search for Another Location

Airport or City:

Trip Planner

Search our weather history database for the weather conditions in past years. The results will help you decide how hot, cold, wet, or windy it might be!

Date:

Astronomy

Mar. 13, 2013 Rise Set
Actual Time 7:12 AM MDT 7:03 PM MDT
Civil Twilight 6:45 AM MDT 7:30 PM MDT
Nautical Twilight 6:14 AM MDT 8:01 PM MDT
Astronomical Twilight 5:42 AM MDT 8:33 PM MDT
Moon 7:53 AM MDT (3/13) 9:22 PM MDT (3/13)
Length of Visible Light 12h 44m
Length of Day
11h 51m
Waxing Crescent, 4% of the Moon is Illuminated
Mar 13
Waxing Crescent
Mar 19
First Quarter
Mar 27
Full
Apr 2
Last Quarter
Apr 10
New

Hourly Weather History & Observations

Time (MDT) Temp. Windchill Dew Point Humidity Pressure Visibility Wind Dir Wind Speed Gust Speed Precip Events Conditions
12:16 AM 30.2 °F 24.3 °F 28.4 °F 93% 30.22 in 7.0 mi West 5.8 mph - N/A   Clear
12:36 AM 32.0 °F 26.4 °F 30.2 °F 93% 30.22 in 7.0 mi WSW 5.8 mph - N/A   Clear
12:57 AM 32.0 °F 26.4 °F 30.2 °F 93% 30.21 in 7.0 mi SW 5.8 mph - N/A   Clear
1:17 AM 32.0 °F 28.7 °F 30.2 °F 93% 30.22 in 7.0 mi SW 3.5 mph - N/A   Clear
1:37 AM 30.2 °F 21.9 °F 28.4 °F 93% 30.20 in 5.0 mi SW 9.2 mph - N/A   Clear
1:57 AM 32.0 °F 24.8 °F 30.2 °F 93% 30.20 in 7.0 mi SW 8.1 mph - N/A   Clear
2:17 AM 32.0 °F 24.2 °F 30.2 °F 93% 30.19 in 7.0 mi SW 9.2 mph - N/A   Clear
2:57 AM 33.8 °F 30.8 °F 30.2 °F 87% 30.18 in 10.0 mi South 3.5 mph - N/A   Clear
3:17 AM 33.8 °F 28.6 °F 30.2 °F 87% 30.17 in 10.0 mi South 5.8 mph - N/A   Clear
3:37 AM 37.4 °F 29.8 °F 30.2 °F 75% 30.16 in 10.0 mi SSW 11.5 mph - N/A   Clear
3:57 AM 39.2 °F 33.0 °F 28.4 °F 65% 30.16 in 10.0 mi SSW 9.2 mph - N/A   Clear
4:17 AM 37.4 °F 30.8 °F 28.4 °F 70% 30.16 in 10.0 mi SSW 9.2 mph - N/A   Clear
4:37 AM 39.2 °F 32.5 °F 28.4 °F 65% 30.16 in 10.0 mi SSW 10.4 mph - N/A   Clear
4:57 AM 33.8 °F 26.4 °F 28.4 °F 81% 30.17 in 10.0 mi SSW 9.2 mph - N/A   Clear
5:17 AM 39.2 °F 32.5 °F 26.6 °F 61% 30.18 in 10.0 mi SSW 10.4 mph - N/A   Clear
5:37 AM 39.2 °F 32.5 °F 26.6 °F 61% 30.18 in 10.0 mi SSW 10.4 mph - N/A   Clear
5:57 AM 37.4 °F 30.3 °F 26.6 °F 65% 30.18 in 10.0 mi SSW 10.4 mph - N/A   Clear
6:17 AM 37.4 °F 29.8 °F 26.6 °F 65% 30.19 in 10.0 mi SW 11.5 mph - N/A   Clear
6:37 AM 41.0 °F 34.7 °F 26.6 °F 57% 30.19 in 10.0 mi WSW 10.4 mph - N/A   Clear
6:57 AM 39.2 °F 33.0 °F 26.6 °F 61% 30.20 in 10.0 mi SW 9.2 mph - N/A   Clear
7:50 AM 37.4 °F 32.8 °F 26.6 °F 65% 30.22 in 50.0 mi SW 5.8 mph - N/A   Partly Cloudy
8:50 AM 44.6 °F 42.2 °F 28.4 °F 53% 30.23 in 50.0 mi SW 4.6 mph - N/A   Partly Cloudy
9:55 AM 50.0 °F - 30.2 °F 47% 30.26 in 50.0 mi WSW 4.6 mph - N/A   Partly Cloudy
10:57 AM 46.4 °F 43.5 °F 37.4 °F 71% 30.27 in 50.0 mi NE 5.8 mph - N/A   Scattered Clouds
11:48 AM 53.6 °F - 30.2 °F 41% 30.27 in 50.0 mi East 5.8 mph - N/A   Scattered Clouds
12:58 PM 57.2 °F - 32.0 °F 38% 30.27 in 50.0 mi SE 11.5 mph - N/A   Scattered Clouds
1:51 PM 57.2 °F - 28.4 °F 33% 30.25 in 50.0 mi ESE 11.5 mph - N/A   Scattered Clouds
2:55 PM 59.0 °F - 28.4 °F 31% 30.23 in 50.0 mi SE 10.4 mph - N/A   Scattered Clouds
4:47 PM 60.8 °F - 30.2 °F 31% 30.21 in 50.0 mi Calm Calm - N/A   Mostly Cloudy
6:50 PM 57.2 °F - 28.4 °F 33% 30.21 in 50.0 mi Calm Calm - N/A   Mostly Cloudy
7:47 PM 50.0 °F - 32.0 °F 50% 30.22 in 50.0 mi WSW 10.4 mph - N/A   Scattered Clouds
8:47 PM 50.0 °F - 28.4 °F 43% 30.23 in 50.0 mi West 10.4 mph - N/A   Scattered Clouds
9:17 PM 44.6 °F 39.7 °F 32.0 °F 61% 30.23 in 10.0 mi West 9.2 mph - N/A   Clear
9:37 PM 44.6 °F 40.2 °F 30.2 °F 57% 30.24 in 10.0 mi West 8.1 mph - N/A   Clear
9:57 PM 44.6 °F 40.7 °F 30.2 °F 57% 30.24 in 10.0 mi WNW 6.9 mph - N/A   Clear
10:16 PM 46.4 °F 42.4 °F 28.4 °F 50% 30.25 in 10.0 mi SW 8.1 mph - N/A   Clear
10:37 PM 46.4 °F 42.9 °F 28.4 °F 50% 30.25 in 10.0 mi SW 6.9 mph - N/A   Clear
10:57 PM 46.4 °F 43.5 °F 30.2 °F 53% 30.26 in 10.0 mi SSW 5.8 mph - N/A   Clear
11:17 PM 46.4 °F 44.3 °F 30.2 °F 53% 30.26 in 10.0 mi South 4.6 mph - N/A   Clear
11:37 PM 42.8 °F 38.6 °F 32.0 °F 66% 30.25 in 10.0 mi SSW 6.9 mph - N/A   Clear
11:57 PM 46.4 °F 42.4 °F 28.4 °F 50% 30.26 in 10.0 mi SSW 8.1 mph - N/A   Clear